• In Deutschland
  • Länderverzeichnis
  • Für 7 Tage
  • Wassertemperatur
  • Satellitenkarten
  • Wetterkarte
  • Widgets
  • user-avatar
    Anmelden

    Stündliche Wetter Novi Ligure

    Heute, 19 September, Mittwoch

    Zeit Temperatur Niederschläge Wind Luftdruck Luftfeuchtigkeit
    00:00 +21°C° 0.1 mm 1 m/S 747 mmHg 85%
    01:00 +20°C° 0.1 mm 1 m/S 747 mmHg 86%
    02:00 +20°C° 0.1 mm 1 m/S 747 mmHg 87%
    03:00 +20°C° 0.1 mm 1 m/S 747 mmHg 88%
    04:00 +20°C° 0.1 mm 1 m/S 747 mmHg 89%
    05:00 +20°C° 0 mm 1 m/S 747 mmHg 89%
    06:00 +20°C° 0 mm 1 m/S 747 mmHg 88%
    07:00 +20°C° 0 mm 1 m/S 747 mmHg 88%
    08:00 +22°C° 0 mm 1 m/S 747 mmHg 81%
    09:00 +24°C° 0 mm 1 m/S 747 mmHg 74%
    10:00 +26°C° 0 mm 1 m/S 747 mmHg 68%
    11:00 +27°C° 0 mm 1 m/S 747 mmHg 63%
    12:00 +28°C° 0 mm 2 m/S 747 mmHg 59%
    13:00 +29°C° 0 mm 2 m/S 747 mmHg 55%
    14:00 +29°C° 0.1 mm 2 m/S 747 mmHg 54%
    15:00 +29°C° 0.1 mm 1 m/S 746 mmHg 54%
    16:00 +29°C° 0.1 mm 1 m/S 746 mmHg 53%
    17:00 +27°C° 0 mm 1 m/S 746 mmHg 60%
    18:00 +25°C° 0 mm 1 m/S 746 mmHg 67%
    19:00 +23°C° 0 mm 1 m/S 746 mmHg 74%
    20:00 +23°C° 0 mm 1 m/S 747 mmHg 76%
    21:00 +22°C° 0 mm 1 m/S 747 mmHg 77%
    22:00 +22°C° 0 mm 1 m/S 747 mmHg 79%
    23:00 +21°C° 0 mm 1 m/S 747 mmHg 79%

    Morgen, 20 September, Donnerstag

    Zeit Temperatur Niederschläge Wind Luftdruck Luftfeuchtigkeit
    00:00 +21°C° 0 mm 1 m/S 747 mmHg 79%
    01:00 +21°C° 0 mm 1 m/S 747 mmHg 79%
    02:00 +19°C° 0 mm 2 m/S 747 mmHg 79%
    03:00 +19°C° 0 mm 2 m/S 747 mmHg 79%
    04:00 +19°C° 0 mm 2 m/S 747 mmHg 79%
    05:00 +19°C° 0 mm 2 m/S 747 mmHg 78%
    06:00 +19°C° 0 mm 2 m/S 747 mmHg 78%
    07:00 +19°C° 0 mm 2 m/S 747 mmHg 78%
    08:00 +21°C° 0 mm 2 m/S 747 mmHg 72%
    09:00 +24°C° 0 mm 2 m/S 747 mmHg 66%
    10:00 +26°C° 0 mm 2 m/S 747 mmHg 60%
    11:00 +27°C° 0 mm 2 m/S 747 mmHg 57%
    12:00 +29°C° 0 mm 2 m/S 746 mmHg 53%
    13:00 +30°C° 0 mm 2 m/S 746 mmHg 49%
    14:00 +30°C° 0 mm 2 m/S 746 mmHg 49%
    15:00 +30°C° 0 mm 2 m/S 746 mmHg 48%
    16:00 +30°C° 0 mm 2 m/S 745 mmHg 48%
    17:00 +28°C° 0 mm 2 m/S 745 mmHg 55%
    18:00 +26°C° 0 mm 1 m/S 745 mmHg 62%
    19:00 +24°C° 0 mm 1 m/S 745 mmHg 69%
    20:00 +23°C° 0 mm 1 m/S 745 mmHg 70%
    21:00 +22°C° 0 mm 1 m/S 746 mmHg 72%
    22:00 +22°C° 0 mm 1 m/S 746 mmHg 73%
    23:00 +21°C° 0 mm 1 m/S 746 mmHg 73%

    übermorgen, 21 September, Freitag

    Zeit Temperatur Niederschläge Wind Luftdruck Luftfeuchtigkeit
    00:00 +21°C° 0 mm 1 m/S 746 mmHg 72%
    01:00 +21°C° 0 mm 1 m/S 745 mmHg 72%
    02:00 +20°C° 0 mm 1 m/S 745 mmHg 72%
    03:00 +20°C° 0 mm 1 m/S 745 mmHg 72%
    04:00 +19°C° 0 mm 2 m/S 745 mmHg 72%
    05:00 +20°C° 0 mm 1 m/S 745 mmHg 73%
    06:00 +20°C° 0 mm 1 m/S 745 mmHg 73%
    07:00 +20°C° 0 mm 1 m/S 745 mmHg 73%
    08:00 +22°C° 0 mm 1 m/S 745 mmHg 67%
    09:00 +24°C° 0 mm 1 m/S 745 mmHg 61%
    10:00 +27°C° 0 mm 1 m/S 745 mmHg 55%
    11:00 +28°C° 0 mm 1 m/S 745 mmHg 52%
    12:00 +29°C° 0 mm 1 m/S 744 mmHg 49%
    13:00 +30°C° 0 mm 1 m/S 744 mmHg 46%
    14:00 +29°C° 0 mm 2 m/S 744 mmHg 48%
    15:00 +29°C° 0 mm 2 m/S 743 mmHg 49%
    16:00 +29°C° 0 mm 2 m/S 743 mmHg 50%
    17:00 +27°C° 0 mm 2 m/S 743 mmHg 58%
    18:00 +25°C° 0 mm 2 m/S 743 mmHg 67%
    19:00 +23°C° 0 mm 2 m/S 743 mmHg 75%
    20:00 +21°C° 0 mm 2 m/S 743 mmHg 77%
    21:00 +21°C° 0 mm 2 m/S 743 mmHg 79%
    22:00 +20°C° 0 mm 2 m/S 743 mmHg 81%
    23:00 +20°C° 0 mm 2 m/S 742 mmHg 84%

    22 September, Samstag

    Zeit Temperatur Niederschläge Wind Luftdruck Luftfeuchtigkeit
    00:00 +20°C° 0 mm 2 m/S 742 mmHg 86%
    01:00 +21°C° 0 mm 1 m/S 742 mmHg 89%
    02:00 +21°C° 0 mm 1 m/S 742 mmHg 90%
    03:00 +21°C° 0 mm 1 m/S 741 mmHg 91%
    04:00 +21°C° 0 mm 1 m/S 741 mmHg 92%
    05:00 +21°C° 0 mm 1 m/S 742 mmHg 92%
    06:00 +21°C° 0 mm 1 m/S 742 mmHg 91%
    07:00 +21°C° 0 mm 1 m/S 742 mmHg 91%
    08:00 +22°C° 0.1 mm 1 m/S 742 mmHg 85%
    09:00 +23°C° 0.1 mm 2 m/S 743 mmHg 79%
    10:00 +25°C° 0.1 mm 2 m/S 743 mmHg 72%
    11:00 +25°C° 0.1 mm 2 m/S 743 mmHg 69%
    12:00 +26°C° 0.1 mm 2 m/S 743 mmHg 65%
    13:00 +26°C° 0.1 mm 2 m/S 743 mmHg 62%
    14:00 +26°C° 0.1 mm 2 m/S 743 mmHg 61%
    15:00 +27°C° 0.1 mm 2 m/S 743 mmHg 59%
    16:00 +27°C° 0.1 mm 2 m/S 743 mmHg 58%
    17:00 +25°C° 0.1 mm 3 m/S 744 mmHg 66%
    18:00 +21°C° 0.1 mm 3 m/S 745 mmHg 74%
    19:00 +19°C° 0.1 mm 4 m/S 745 mmHg 81%
    20:00 +18°C° 0 mm 4 m/S 746 mmHg 83%
    21:00 +17°C° 0 mm 4 m/S 746 mmHg 84%
    22:00 +15°C° 0 mm 4 m/S 747 mmHg 85%
    23:00 +15°C° 0 mm 4 m/S 747 mmHg 85%

    23 September, Sonntag

    Zeit Temperatur Niederschläge Wind Luftdruck Luftfeuchtigkeit
    00:00 +14°C° 0 mm 4 m/S 747 mmHg 84%
    01:00 +14°C° 0 mm 4 m/S 747 mmHg 84%
    02:00 +14°C° 0 mm 3 m/S 747 mmHg 84%
    03:00 +14°C° 0 mm 3 m/S 747 mmHg 84%
    04:00 +14°C° 0 mm 3 m/S 747 mmHg 83%
    05:00 +15°C° 0 mm 2 m/S 747 mmHg 83%
    06:00 +15°C° 0 mm 2 m/S 747 mmHg 84%
    07:00 +14°C° 0 mm 2 m/S 747 mmHg 84%
    08:00 +16°C° 0 mm 2 m/S 746 mmHg 78%
    09:00 +18°C° 0 mm 2 m/S 746 mmHg 72%
    10:00 +20°C° 0 mm 2 m/S 746 mmHg 66%
    11:00 +21°C° 0 mm 2 m/S 746 mmHg 62%
    12:00 +23°C° 0 mm 2 m/S 745 mmHg 58%
    13:00 +25°C° 0 mm 2 m/S 745 mmHg 54%
    14:00 +25°C° 0 mm 2 m/S 744 mmHg 55%
    15:00 +25°C° 0 mm 2 m/S 744 mmHg 56%
    16:00 +25°C° 0 mm 3 m/S 743 mmHg 57%
    17:00 +23°C° 0 mm 2 m/S 743 mmHg 65%
    18:00 +21°C° 0 mm 2 m/S 742 mmHg 73%
    19:00 +19°C° 0 mm 2 m/S 742 mmHg 81%
    20:00 +19°C° 0 mm 2 m/S 741 mmHg 83%
    21:00 +19°C° 0 mm 2 m/S 740 mmHg 84%
    22:00 +19°C° 0 mm 2 m/S 739 mmHg 86%
    23:00 +19°C° 0 mm 2 m/S 738 mmHg 87%

    24 September, Montag

    Zeit Temperatur Niederschläge Wind Luftdruck Luftfeuchtigkeit
    00:00 +18°C° 0 mm 2 m/S 737 mmHg 87%
    01:00 +18°C° 0 mm 2 m/S 736 mmHg 87%
    02:00 +18°C° 0 mm 2 m/S 736 mmHg 83%
    03:00 +17°C° 0 mm 3 m/S 736 mmHg 79%
    04:00 +17°C° 0 mm 4 m/S 736 mmHg 75%
    05:00 +15°C° 0 mm 4 m/S 737 mmHg 67%
    06:00 +15°C° 0 mm 4 m/S 737 mmHg 59%
    07:00 +14°C° 0 mm 4 m/S 738 mmHg 51%
    08:00 +16°C° 0 mm 5 m/S 738 mmHg 43%
    09:00 +19°C° 0 mm 5 m/S 739 mmHg 36%
    10:00 +21°C° 0 mm 6 m/S 740 mmHg 29%
    11:00 +21°C° 0 mm 6 m/S 740 mmHg 26%
    12:00 +22°C° 0 mm 6 m/S 740 mmHg 24%
    13:00 +23°C° 0 mm 6 m/S 740 mmHg 21%
    14:00 +22°C° 0 mm 7 m/S 740 mmHg 22%
    15:00 +22°C° 0 mm 7 m/S 740 mmHg 22%
    16:00 +21°C° 0 mm 7 m/S 740 mmHg 22%
    17:00 +20°C° 0 mm 7 m/S 741 mmHg 23%
    18:00 +17°C° 0 mm 7 m/S 742 mmHg 24%
    19:00 +15°C° 0 mm 7 m/S 743 mmHg 25%
    20:00 +14°C° 0 mm 6 m/S 744 mmHg 27%
    21:00 +13°C° 0 mm 5 m/S 744 mmHg 29%
    22:00 +12°C° 0 mm 5 m/S 745 mmHg 30%
    23:00 +12°C° 0 mm 4 m/S 745 mmHg 33%
    Mehr zeigen